When you browse on this site, cookies collect data to enhance your experience and personalize the content and advertising you see.
Visit our Privacy Policy to learn more. By continuing to use the site, you agree to this use of cookies and data.
  • In United Kingdom
  • List of Countries
  • For 7 days
  • Water Temperature
  • Satellite Maps
  • Weather Map
  • Weather Widgets
  • user-avatar
    Login

    Hourly Weather Les Pennes-Mirabeau

    Today, 15 December, Saturday

    Time Temperature Precipitation Wind Pressure Humidity
    00:00 -1°C° 0 mm 6 mps 753 mmHg 63%
    01:00 -1°C° 0 mm 6 mps 753 mmHg 63%
    02:00 -1°C° 0 mm 6 mps 753 mmHg 63%
    03:00 0°C° 0 mm 5 mps 753 mmHg 63%
    04:00 0°C° 0 mm 5 mps 754 mmHg 62%
    05:00 0°C° 0 mm 5 mps 754 mmHg 61%
    06:00 -1°C° 0 mm 5 mps 754 mmHg 61%
    07:00 0°C° 0 mm 4 mps 754 mmHg 58%
    08:00 +1°C° 0 mm 4 mps 754 mmHg 54%
    09:00 +3°C° 0 mm 4 mps 754 mmHg 51%
    10:00 +5°C° 0 mm 3 mps 754 mmHg 49%
    11:00 +7°C° 0 mm 3 mps 754 mmHg 47%
    12:00 +9°C° 0 mm 2 mps 754 mmHg 44%
    13:00 +9°C° 0 mm 2 mps 754 mmHg 46%
    14:00 +8°C° 0 mm 2 mps 754 mmHg 47%
    15:00 +8°C° 0 mm 2 mps 754 mmHg 48%
    16:00 +7°C° 0 mm 2 mps 754 mmHg 51%
    17:00 +7°C° 0 mm 2 mps 754 mmHg 53%
    18:00 +6°C° 0 mm 2 mps 754 mmHg 55%
    19:00 +6°C° 0 mm 2 mps 754 mmHg 55%
    20:00 +7°C° 0 mm 1 mps 754 mmHg 55%
    21:00 +7°C° 0 mm 1 mps 754 mmHg 55%
    22:00 +7°C° 0 mm 1 mps 754 mmHg 56%
    23:00 +7°C° 0 mm 1 mps 754 mmHg 57%

    Tomorrow, 16 December, Sunday

    Time Temperature Precipitation Wind Pressure Humidity
    00:00 +7°C° 0 mm 1 mps 754 mmHg 58%
    01:00 +7°C° 0.1 mm 1 mps 753 mmHg 59%
    02:00 +7°C° 0.1 mm 1 mps 753 mmHg 60%
    03:00 +6°C° 0.1 mm 2 mps 753 mmHg 60%
    04:00 +7°C° 0.1 mm 1 mps 753 mmHg 63%
    05:00 +7°C° 0.1 mm 1 mps 752 mmHg 67%
    06:00 +7°C° 0.1 mm 1 mps 752 mmHg 70%
    07:00 +7°C° 0.7 mm 1 mps 752 mmHg 74%
    08:00 +7°C° 0.7 mm 2 mps 752 mmHg 79%
    09:00 +7°C° 0.7 mm 2 mps 752 mmHg 83%
    10:00 +7°C° 2 mm 2 mps 752 mmHg 86%
    11:00 +7°C° 2 mm 2 mps 751 mmHg 89%
    12:00 +7°C° 2 mm 2 mps 751 mmHg 91%
    13:00 +7°C° 1.2 mm 2 mps 751 mmHg 92%
    14:00 +8°C° 1.2 mm 2 mps 750 mmHg 92%
    15:00 +9°C° 1.2 mm 1 mps 750 mmHg 92%
    16:00 +9°C° 0.3 mm 1 mps 750 mmHg 93%
    17:00 +8°C° 0.3 mm 2 mps 750 mmHg 93%
    18:00 +7°C° 0.3 mm 2 mps 750 mmHg 93%
    19:00 +7°C° 0.1 mm 2 mps 751 mmHg 93%
    20:00 +7°C° 0.1 mm 3 mps 751 mmHg 94%
    21:00 +7°C° 0.1 mm 3 mps 751 mmHg 94%
    22:00 +6°C° 0 mm 4 mps 752 mmHg 94%
    23:00 +6°C° 0 mm 4 mps 752 mmHg 93%

    Day after tomorrow, 17 December, Monday

    Time Temperature Precipitation Wind Pressure Humidity
    00:00 +6°C° 0 mm 5 mps 752 mmHg 93%
    01:00 +6°C° 0 mm 5 mps 752 mmHg 93%
    02:00 +5°C° 0 mm 6 mps 752 mmHg 92%
    03:00 +5°C° 0 mm 7 mps 753 mmHg 92%
    04:00 +5°C° 0 mm 7 mps 753 mmHg 89%
    05:00 +5°C° 0 mm 8 mps 754 mmHg 87%
    06:00 +5°C° 0 mm 8 mps 754 mmHg 84%
    07:00 +5°C° 0 mm 9 mps 755 mmHg 79%
    08:00 +6°C° 0 mm 9 mps 755 mmHg 74%
    09:00 +6°C° 0 mm 9 mps 756 mmHg 68%
    10:00 +7°C° 0 mm 10 mps 756 mmHg 63%
    11:00 +8°C° 0 mm 10 mps 756 mmHg 58%
    12:00 +9°C° 0 mm 10 mps 756 mmHg 53%
    13:00 +9°C° 0 mm 10 mps 756 mmHg 53%
    14:00 +8°C° 0 mm 10 mps 756 mmHg 54%
    15:00 +8°C° 0 mm 9 mps 757 mmHg 54%
    16:00 +7°C° 0 mm 9 mps 757 mmHg 57%
    17:00 +7°C° 0 mm 8 mps 758 mmHg 60%
    18:00 +6°C° 0 mm 8 mps 758 mmHg 63%
    19:00 +5°C° 0 mm 7 mps 758 mmHg 65%
    20:00 +5°C° 0 mm 7 mps 759 mmHg 67%
    21:00 +4°C° 0 mm 6 mps 759 mmHg 70%
    22:00 +4°C° 0 mm 6 mps 759 mmHg 70%
    23:00 +3°C° 0 mm 5 mps 759 mmHg 71%

    18 December, Tuesday

    Time Temperature Precipitation Wind Pressure Humidity
    00:00 +3°C° 0 mm 5 mps 759 mmHg 71%
    01:00 +4°C° 0 mm 4 mps 759 mmHg 68%
    02:00 +4°C° 0 mm 3 mps 759 mmHg 65%
    03:00 +4°C° 0 mm 3 mps 759 mmHg 62%
    04:00 +5°C° 0 mm 2 mps 759 mmHg 62%
    05:00 +5°C° 0 mm 2 mps 759 mmHg 61%
    06:00 +5°C° 0 mm 2 mps 759 mmHg 60%
    07:00 +6°C° 0 mm 2 mps 759 mmHg 64%
    08:00 +7°C° 0 mm 2 mps 759 mmHg 67%
    09:00 +8°C° 0 mm 2 mps 760 mmHg 70%
    10:00 +9°C° 0 mm 3 mps 759 mmHg 67%
    11:00 +11°C° 0 mm 4 mps 759 mmHg 65%
    12:00 +12°C° 0 mm 4 mps 758 mmHg 62%
    13:00 +12°C° 0 mm 5 mps 758 mmHg 63%
    14:00 +12°C° 0 mm 5 mps 758 mmHg 65%
    15:00 +10°C° 0 mm 5 mps 757 mmHg 66%
    16:00 +10°C° 0 mm 5 mps 757 mmHg 70%
    17:00 +9°C° 0 mm 5 mps 757 mmHg 74%
    18:00 +8°C° 0 mm 5 mps 757 mmHg 78%
    19:00 +8°C° 0.1 mm 5 mps 757 mmHg 79%
    20:00 +9°C° 0.1 mm 6 mps 757 mmHg 80%
    21:00 +9°C° 0.1 mm 6 mps 757 mmHg 80%
    22:00 +9°C° 0.2 mm 6 mps 756 mmHg 80%
    23:00 +9°C° 0.2 mm 6 mps 756 mmHg 80%

    19 December, Wednesday

    Time Temperature Precipitation Wind Pressure Humidity
    00:00 +9°C° 0.2 mm 6 mps 756 mmHg 80%
    01:00 +9°C° 0.3 mm 6 mps 755 mmHg 81%
    02:00 +9°C° 0.3 mm 7 mps 755 mmHg 82%
    03:00 +9°C° 0.3 mm 7 mps 755 mmHg 83%
    04:00 +9°C° 1.5 mm 7 mps 754 mmHg 85%
    05:00 +9°C° 1.5 mm 6 mps 754 mmHg 88%
    06:00 +9°C° 1.5 mm 6 mps 754 mmHg 90%
    07:00 +9°C° 2.6 mm 5 mps 754 mmHg 91%
    08:00 +9°C° 2.6 mm 5 mps 754 mmHg 92%
    09:00 +10°C° 2.6 mm 4 mps 754 mmHg 93%
    10:00 +10°C° 0.4 mm 4 mps 754 mmHg 90%
    11:00 +11°C° 0.4 mm 3 mps 754 mmHg 88%
    12:00 +11°C° 0.4 mm 3 mps 754 mmHg 85%
    13:00 +11°C° 0 mm 3 mps 753 mmHg 83%
    14:00 +11°C° 0 mm 4 mps 753 mmHg 81%
    15:00 +11°C° 0 mm 4 mps 753 mmHg 78%
    16:00 +10°C° 0 mm 4 mps 753 mmHg 80%
    17:00 +8°C° 0 mm 4 mps 754 mmHg 82%
    18:00 +8°C° 0 mm 4 mps 754 mmHg 83%
    19:00 +7°C° 0 mm 4 mps 754 mmHg 83%
    20:00 +7°C° 0 mm 5 mps 755 mmHg 83%
    21:00 +7°C° 0 mm 5 mps 755 mmHg 82%
    22:00 +6°C° 0 mm 5 mps 755 mmHg 81%
    23:00 +6°C° 0 mm 5 mps 755 mmHg 81%

    20 December, Thursday

    Time Temperature Precipitation Wind Pressure Humidity
    00:00 +6°C° 0 mm 5 mps 755 mmHg 80%
    01:00 +5°C° 0 mm 6 mps 755 mmHg 80%
    02:00 +4°C° 0 mm 6 mps 755 mmHg 81%
    03:00 +4°C° 0 mm 6 mps 755 mmHg 81%
    04:00 +4°C° 0 mm 6 mps 756 mmHg 82%
    05:00 +4°C° 0 mm 6 mps 756 mmHg 82%
    06:00 +4°C° 0 mm 6 mps 756 mmHg 82%
    07:00 +4°C° 0 mm 6 mps 756 mmHg 79%
    08:00 +5°C° 0 mm 6 mps 757 mmHg 76%
    09:00 +5°C° 0 mm 7 mps 757 mmHg 73%
    10:00 +8°C° 0 mm 7 mps 757 mmHg 68%
    11:00 +9°C° 0 mm 7 mps 757 mmHg 62%
    12:00 +10°C° 0 mm 7 mps 756 mmHg 57%
    13:00 +9°C° 0 mm 7 mps 756 mmHg 57%
    14:00 +9°C° 0 mm 7 mps 756 mmHg 58%
    15:00 +9°C° 0 mm 7 mps 756 mmHg 58%
    16:00 +8°C° 0 mm 6 mps 757 mmHg 61%
    17:00 +7°C° 0 mm 6 mps 757 mmHg 64%
    18:00 +7°C° 0 mm 6 mps 758 mmHg 67%
    19:00 +5°C° 0 mm 6 mps 758 mmHg 69%
    20:00 +5°C° 0 mm 6 mps 758 mmHg 70%
    21:00 +5°C° 0 mm 6 mps 758 mmHg 72%
    22:00 +5°C° 0 mm 6 mps 758 mmHg 74%
    23:00 +5°C° 0 mm 6 mps 758 mmHg 76%
    Show more